RAVEN

导读

RAVEN(NORAD编号69016)是一颗进入地球轨道的人造卫星,由北美防空司令部分配该专属识别编号,用于轨道监测与碰撞规避管理。 作为一颗登记在案的空间物体,它遵循国际航天监测规范,其轨道参数被纳入公共航天数据库,供学术研究和轨道分析使用。 NORAD编号系统为全球近地轨道数万航天器提供唯一标识,RAVEN 69016也依托这套系统,帮助地面运营方实时跟踪轨道位置,保障空间活动安全。目前关于该卫星具体任务属性的公开信息较少,但它是全球航天活动中被规范化监测管理的一员。

基本信息
目录编号:
69016
目录名称:
RAVEN
国际标识:
2026-100AN
轨道中心:
EARTH
卫星名称:
RAVEN
卫星全名:
RAVEN
卫星状态:
在轨 (已飞行125 天)
发射日期:
2026-05-03 UTC
国别 :
德国 (DE)
星等 :
--
轨道信息
数据来源 国际轨道数据
星历时间: 2026-09-05T11:56:35+0800
11小时前
查看轨道信息
半长轴: 6878.872km
偏心率: 0.0009258
轨道倾角: 97.392°
近地点辐角 122.715°
升交点赤经 144.679°
平近点角 237.498°
近地点: 494.366km
远地点: 507.104km
周期: 94.631分钟
每日圈数: 15.216928
详细信息
使用方式:
暂无
2D轨道图
3D轨道图
轨道高度分析图
轨道倾角分析图
轨道综合分析图
查看轨道综合分析图
交会数据列表
事件ID 空间交会对象 最接近时刻(TCA) 交会距离 交会风险概率(CRP) 交会风险指数(CRI) 操作
CDM_260906-002606-490306-901622
CO3D1 (64903)
RAVEN (69016)
2026-09-06T
00:26:37+0000
1.005 km
极远距离
2.706477E-5 中风险 0.64
CDM_260905-150505-245206-901622
RAVEN (69016)
2026-09-05T
15:05:13+0000
1.060 km
极远距离
2.201592E-5 中风险 0.62
CDM_260905-225403-636506-901626
RAVEN (69016)
2026-09-05T
22:54:25+0000
1.379 km
极远距离
9.016489E-6 低风险 0.54
CDM_260905-211903-636506-901626
RAVEN (69016)
2026-09-05T
21:19:44+0000
1.435 km
极远距离
7.880101E-6 低风险 0.53
CDM_260906-230206-455206-901623
RAVEN (69016)
2026-09-06T
23:02:15+0000
1.447 km
极远距离
7.38059E-6 低风险 0.52
CDM_260906-002903-636506-901626
RAVEN (69016)
2026-09-06T
00:29:07+0000
1.527 km
极远距离
6.4131E-6 低风险 0.51
CDM_260905-194503-636506-901626
RAVEN (69016)
2026-09-05T
19:45:02+0000
1.676 km
极远距离
4.778037E-6 低风险 0.49
CDM_260906-020303-636506-901626
RAVEN (69016)
2026-09-06T
02:03:48+0000
1.830 km
极远距离
3.684673E-6 低风险 0.46
CDM_260905-181003-636506-901626
RAVEN (69016)
2026-09-05T
18:10:20+0000
2.037 km
极远距离
2.763642E-6 低风险 0.44
CDM_260906-033803-636506-901626
RAVEN (69016)
2026-09-06T
03:38:30+0000
2.224 km
极远距离
2.246413E-6 低风险 0.42